Location: Caltech
(34.1382°N, 118.1253°W)
Time: 03:13:41
(UTC-07:00)

Aureole 2 Rocket - Visible Passes

Search period start: 16 April 2014 00:00
Search period end: 26 April 2014 00:00
Orbit: 351 x 783 km, 74.0° (Epoch: 14 April)

Date Brightness Start Highest point End Pass type
(mag) Time Alt. Az. Time Alt. Az. Time Alt. Az.
17 Apr 4.6 21:01:36 10° NNE 21:02:07 13° NNE 21:02:07 13° NNE visible
18 Apr 4.0 21:02:04 10° N 21:03:20 20° NNE 21:03:20 20° NNE visible
19 Apr 3.1 21:02:40 10° N 21:04:34 34° NNE 21:04:34 34° NNE visible
20 Apr 2.2 21:03:20 10° NNW 21:05:50 65° NNW 21:05:50 65° NNW visible
21 Apr 2.6 21:04:05 10° NNW 21:06:51 50° WSW 21:07:07 47° SW visible
22 Apr 3.7 21:04:55 10° NW 21:07:27 29° WSW 21:08:26 23° SW visible
23 Apr 4.6 21:05:54 10° NW 21:07:59 19° WSW 21:09:49 12° SW visible
24 Apr 5.1 21:07:14 10° WNW 21:08:28 12° W 21:09:42 10° SW visible
